When you browse on this site, cookies collect data to enhance your experience and personalize the content and advertising you see.
Visit our Privacy Policy to learn more. By continuing to use the site, you agree to this use of cookies and data.

Tiempo cada hora Gitega

Hoy, 18 Septiembre, Viernes

Tiempo Temperatura Precipitaciones Viento Presión Humedad
00:00 +20°C° 0 mm 1 mps 622 mmHg 55%
01:00 +19°C° 0 mm 1 mps 621 mmHg 57%
02:00 +19°C° 0 mm 1 mps 621 mmHg 61%
03:00 +19°C° 0 mm 1 mps 621 mmHg 62%
04:00 +18°C° 0 mm 1 mps 622 mmHg 64%
05:00 +16°C° 0 mm 0 mps 622 mmHg 65%
06:00 +19°C° 0 mm 2 mps 623 mmHg 56%
07:00 +21°C° 0 mm 3 mps 625 mmHg 47%
08:00 +25°C° 0 mm 4 mps 626 mmHg 38%
09:00 +27°C° 0 mm 4 mps 626 mmHg 33%
10:00 +28°C° 0 mm 4 mps 626 mmHg 28%
11:00 +30°C° 0 mm 5 mps 627 mmHg 24%
12:00 +32°C° 0 mm 4 mps 626 mmHg 22%
13:00 +33°C° 0 mm 4 mps 625 mmHg 21%
14:00 +34°C° 0 mm 4 mps 625 mmHg 19%
15:00 +33°C° 0 mm 4 mps 624 mmHg 20%
16:00 +32°C° 0 mm 4 mps 624 mmHg 21%
17:00 +30°C° 0 mm 4 mps 623 mmHg 22%
18:00 +28°C° 0 mm 3 mps 623 mmHg 26%
19:00 +26°C° 0 mm 2 mps 623 mmHg 30%
20:00 +24°C° 0 mm 1 mps 623 mmHg 34%
21:00 +23°C° 0 mm 1 mps 623 mmHg 37%
22:00 +23°C° 0 mm 1 mps 623 mmHg 39%
23:00 +22°C° 0 mm 1 mps 623 mmHg 41%

Mañana, 19 Septiembre, Sábado

Tiempo Temperatura Precipitaciones Viento Presión Humedad
00:00 +21°C° 0 mm 1 mps 622 mmHg 43%
01:00 +20°C° 0 mm 1 mps 622 mmHg 45%
02:00 +19°C° 0 mm 1 mps 621 mmHg 47%
03:00 +17°C° 0 mm 0 mps 621 mmHg 49%
04:00 +16°C° 0 mm 0 mps 621 mmHg 52%
05:00 +15°C° 0 mm 0 mps 621 mmHg 54%
06:00 +19°C° 0 mm 1 mps 623 mmHg 48%
07:00 +21°C° 0 mm 2 mps 624 mmHg 41%
08:00 +24°C° 0 mm 3 mps 626 mmHg 35%
09:00 +26°C° 0 mm 3 mps 626 mmHg 31%
10:00 +28°C° 0 mm 3 mps 626 mmHg 27%
11:00 +30°C° 0 mm 3 mps 626 mmHg 23%
12:00 +31°C° 0 mm 3 mps 625 mmHg 21%
13:00 +33°C° 0 mm 3 mps 625 mmHg 19%
14:00 +34°C° 0 mm 4 mps 624 mmHg 18%
15:00 +33°C° 0 mm 4 mps 623 mmHg 18%
16:00 +33°C° 0 mm 4 mps 623 mmHg 19%
17:00 +32°C° 0 mm 4 mps 622 mmHg 19%
18:00 +28°C° 0 mm 3 mps 622 mmHg 24%
19:00 +26°C° 0 mm 2 mps 622 mmHg 30%
20:00 +23°C° 0 mm 1 mps 622 mmHg 35%
21:00 +22°C° 0 mm 1 mps 622 mmHg 38%
22:00 +21°C° 0 mm 1 mps 622 mmHg 41%
23:00 +20°C° 0 mm 1 mps 622 mmHg 44%

Pasado mañana, 20 Septiembre, Domingo

Tiempo Temperatura Precipitaciones Viento Presión Humedad
00:00 +20°C° 0 mm 1 mps 622 mmHg 43%
01:00 +21°C° 0 mm 1 mps 622 mmHg 42%
02:00 +21°C° 0 mm 1 mps 622 mmHg 42%
03:00 +18°C° 0 mm 0 mps 621 mmHg 44%
04:00 +17°C° 0 mm 0 mps 621 mmHg 47%
05:00 +16°C° 0 mm 0 mps 621 mmHg 49%
06:00 +20°C° 0 mm 1 mps 623 mmHg 44%
07:00 +21°C° 0 mm 2 mps 624 mmHg 40%
08:00 +24°C° 0 mm 2 mps 625 mmHg 35%
09:00 +26°C° 0 mm 2 mps 625 mmHg 32%
10:00 +28°C° 0 mm 3 mps 626 mmHg 28%
11:00 +30°C° 0 mm 3 mps 626 mmHg 25%
12:00 +30°C° 0 mm 3 mps 625 mmHg 24%
13:00 +31°C° 0 mm 3 mps 624 mmHg 23%
14:00 +31°C° 0 mm 3 mps 623 mmHg 22%
15:00 +30°C° 0 mm 3 mps 623 mmHg 23%
16:00 +30°C° 0 mm 3 mps 623 mmHg 24%
17:00 +29°C° 0 mm 3 mps 622 mmHg 25%
18:00 +27°C° 0 mm 2 mps 622 mmHg 30%
19:00 +26°C° 0 mm 2 mps 622 mmHg 35%
20:00 +24°C° 0 mm 1 mps 622 mmHg 39%
21:00 +23°C° 0 mm 1 mps 622 mmHg 41%
22:00 +22°C° 0 mm 1 mps 622 mmHg 44%
23:00 +19°C° 0 mm 0 mps 622 mmHg 46%

21 Septiembre, Lunes

Tiempo Temperatura Precipitaciones Viento Presión Humedad
00:00 +19°C° 0 mm 0 mps 622 mmHg 48%
01:00 +20°C° 0 mm 1 mps 621 mmHg 49%
02:00 +19°C° 0 mm 1 mps 621 mmHg 51%
03:00 +19°C° 0 mm 1 mps 621 mmHg 52%
04:00 +19°C° 0 mm 1 mps 621 mmHg 53%
05:00 +18°C° 0 mm 1 mps 621 mmHg 54%
06:00 +20°C° 0 mm 1 mps 622 mmHg 49%
07:00 +21°C° 0 mm 2 mps 624 mmHg 44%
08:00 +25°C° 0 mm 2 mps 625 mmHg 38%
09:00 +27°C° 0 mm 2 mps 625 mmHg 35%
10:00 +29°C° 0 mm 3 mps 626 mmHg 31%
11:00 +31°C° 0 mm 3 mps 626 mmHg 27%
12:00 +31°C° 0 mm 3 mps 625 mmHg 26%
13:00 +31°C° 0 mm 3 mps 624 mmHg 26%
14:00 +31°C° 0 mm 3 mps 624 mmHg 25%
15:00 +30°C° 0 mm 3 mps 623 mmHg 27%
16:00 +29°C° 0 mm 3 mps 623 mmHg 29%
17:00 +28°C° 0 mm 4 mps 623 mmHg 31%
18:00 +27°C° 0 mm 3 mps 623 mmHg 37%
19:00 +25°C° 0 mm 2 mps 623 mmHg 43%
20:00 +23°C° 0 mm 1 mps 623 mmHg 48%
21:00 +23°C° 0 mm 1 mps 623 mmHg 50%
22:00 +22°C° 0 mm 1 mps 623 mmHg 51%
23:00 +22°C° 0 mm 1 mps 623 mmHg 52%

22 Septiembre, Martes

Tiempo Temperatura Precipitaciones Viento Presión Humedad
00:00 +22°C° 0 mm 1 mps 623 mmHg 54%
01:00 +21°C° 0 mm 1 mps 623 mmHg 56%
02:00 +19°C° 0 mm 0 mps 622 mmHg 57%
03:00 +20°C° 0 mm 1 mps 622 mmHg 60%
04:00 +19°C° 0 mm 1 mps 622 mmHg 63%
05:00 +18°C° 0 mm 1 mps 622 mmHg 66%
06:00 +20°C° 0 mm 1 mps 623 mmHg 59%
07:00 +21°C° 0 mm 2 mps 625 mmHg 52%
08:00 +24°C° 0 mm 3 mps 626 mmHg 46%
09:00 +26°C° 0 mm 3 mps 626 mmHg 41%
10:00 +28°C° 0 mm 3 mps 626 mmHg 36%
11:00 +30°C° 0 mm 4 mps 627 mmHg 31%
12:00 +30°C° 0 mm 4 mps 626 mmHg 29%
13:00 +32°C° 0 mm 4 mps 625 mmHg 28%
14:00 +32°C° 0 mm 5 mps 624 mmHg 27%
15:00 +30°C° 0 mm 4 mps 624 mmHg 29%
16:00 +29°C° 0 mm 4 mps 623 mmHg 31%
17:00 +28°C° 0 mm 4 mps 623 mmHg 33%
18:00 +26°C° 0 mm 3 mps 623 mmHg 39%
19:00 +25°C° 0 mm 2 mps 623 mmHg 45%
20:00 +23°C° 0 mm 1 mps 623 mmHg 52%
21:00 +22°C° 0 mm 1 mps 623 mmHg 55%
22:00 +21°C° 0 mm 1 mps 623 mmHg 57%
23:00 +20°C° 0 mm 1 mps 623 mmHg 60%

23 Septiembre, Miércoles

Tiempo Temperatura Precipitaciones Viento Presión Humedad
00:00 +20°C° 0 mm 1 mps 623 mmHg 61%
01:00 +19°C° 0 mm 1 mps 622 mmHg 61%
02:00 +19°C° 0 mm 1 mps 622 mmHg 61%
03:00 +18°C° 0 mm 2 mps 622 mmHg 60%
04:00 +19°C° 0 mm 2 mps 623 mmHg 58%
05:00 +19°C° 0 mm 2 mps 623 mmHg 57%
06:00 +20°C° 0 mm 3 mps 624 mmHg 52%
07:00 +21°C° 0 mm 4 mps 625 mmHg 47%
08:00 +22°C° 0 mm 5 mps 626 mmHg 42%
09:00 +25°C° 0 mm 4 mps 626 mmHg 37%
10:00 +27°C° 0 mm 4 mps 626 mmHg 33%
11:00 +29°C° 0 mm 4 mps 627 mmHg 28%
12:00 +29°C° 0 mm 4 mps 626 mmHg 26%
13:00 +30°C° 0 mm 4 mps 625 mmHg 24%
14:00 +32°C° 0 mm 4 mps 624 mmHg 22%
15:00 +32°C° 0 mm 4 mps 623 mmHg 23%
16:00 +30°C° 0 mm 4 mps 623 mmHg 24%
17:00 +29°C° 0 mm 4 mps 623 mmHg 25%
18:00 +27°C° 0 mm 3 mps 623 mmHg 30%
19:00 +25°C° 0 mm 2 mps 623 mmHg 35%
20:00 +22°C° 0 mm 1 mps 623 mmHg 40%
21:00 +22°C° 0 mm 1 mps 623 mmHg 42%
22:00 +21°C° 0 mm 1 mps 623 mmHg 44%
23:00 +21°C° 0 mm 1 mps 623 mmHg 46%
Mostrar más